GW0819 Weather Reports


Display with metric or nautical units.
time (UTC)temp
F
wind
direction
speed
MPH
gust
MPH
rain 1hr
in
rain 24hr
in
rain mn
in
humidity
%
barometer
mb
20260901192602 89 132 15.0 18.0 0.00 0.00 0.00 32 1015.9
20260901192057 88 104 6.0 15.0 0.00 0.00 0.00 33 1016.3
20260901191553 88 117 8.0 13.0 0.00 0.00 0.00 33 1016.2
20260901191049 87 156 13.0 21.0 0.00 0.00 0.00 33 1016.4
20260901190545 89 167 13.0 16.0 0.00 0.00 0.00 32 1016.3
20260901190044 87 169 4.0 20.0 0.00 0.00 0.00 33 1016.4
20260901185543 88 163 13.0 16.0 0.00 0.00 0.00 32 1016.6
20260901185042 87 168 14.0 18.0 0.00 0.00 0.00 33 1016.5
20260901184537 86 145 4.0 14.0 0.00 0.00 0.00 34 1016.7
20260901184032 87 179 9.0 16.0 0.00 0.00 0.00 33 1016.8
20260901183527 86 165 7.0 18.0 0.00 0.00 0.00 34 1016.8
20260901183022 89 141 17.0 21.0 0.00 0.00 0.00 32 1016.6
20260901182519 87 114 11.0 13.0 0.00 0.00 0.00 33 1016.8
20260901182018 87 121 15.0 19.0 0.00 0.00 0.00 34 1017.2
20260901181518 89 134 20.0 21.0 0.00 0.00 0.00 32 1017.0
20260901181012 87 164 12.0 16.0 0.00 0.00 0.00 34 1017.1
20260901180510 88 112 15.0 22.0 0.00 0.00 0.00 33 1017.1
20260901180011 86 139 7.0 11.0 0.00 0.00 0.00 35 1017.2
20260901175504 87 169 10.0 23.0 0.00 0.00 0.00 35 1017.1
20260901174959 86 143 8.0 10.0 0.00 0.00 0.00 37 1017.3
20260901174455 85 148 6.0 14.0 0.00 0.00 0.00 37 1017.4
20260901173951 86 174 14.0 15.0 0.00 0.00 0.00 36 1017.4
20260901173446 85 140 13.0 19.0 0.00 0.00 0.00 38 1017.4
20260901172942 86 133 15.0 18.0 0.00 0.00 0.00 36 1017.5
20260901172437 86 133 11.0 17.0 0.00 0.00 0.00 37 1017.4
20260901171935 85 203 12.0 17.0 0.00 0.00 0.00 38 1017.6
20260901171433 85 137 9.0 13.0 0.00 0.00 0.00 38 1017.6
20260901170933 85 137 14.0 23.0 0.00 0.00 0.00 39 1017.4
20260901170428 84 150 12.0 20.0 0.00 0.00 0.00 44 1017.6
20260901165927 84 162 19.0 21.0 0.00 0.00 0.00 40 1017.6
20260901165422 84 187 14.0 23.0 0.00 0.00 0.00 43 1017.9
20260901164918 84 160 14.0 21.0 0.00 0.00 0.00 44 1018.0
20260901164418 83 189 12.0 16.0 0.00 0.00 0.00 46 1017.9
20260901163913 83 206 18.0 20.0 0.00 0.00 0.00 45 1017.6
20260901163408 82 150 16.0 21.0 0.00 0.00 0.00 47 1017.9
20260901162903 82 154 9.0 17.0 0.00 0.00 0.00 48 1018.2
20260901162402 82 201 16.0 21.0 0.00 0.00 0.00 48 1017.9
20260901161901 81 200 7.0 19.0 0.00 0.00 0.00 51 1017.9
20260901161355 80 190 12.0 17.0 0.00 0.00 0.00 52 1017.7
20260901160850 81 209 11.0 16.0 0.00 0.00 0.00 49 1017.7
20260901160347 80 205 12.0 20.0 0.00 0.00 0.00 51 1018.0
20260901155846 81 206 16.0 21.0 0.00 0.00 0.00 51 1017.7
20260901155341 80 164 14.0 18.0 0.00 0.00 0.00 53 1018.1
20260901154838 80 213 16.0 23.0 0.00 0.00 0.00 53 1017.9
20260901154336 80 181 6.0 16.0 0.00 0.00 0.00 52 1017.7
20260901153831 79 184 14.0 20.0 0.00 0.00 0.00 53 1018.0
20260901153326 79 199 23.0 24.0 0.00 0.00 0.00 53 1017.5
20260901152825 79 211 17.0 22.0 0.00 0.00 0.00 53 1017.6
20260901152324 79 194 17.0 24.0 0.00 0.00 0.00 54 1017.9
20260901151820 80 157 16.0 19.0 0.00 0.00 0.00 52 1018.0
20260901151320 77 198 20.0 24.0 0.00 0.00 0.00 56 1017.7
20260901150814 77 204 14.0 17.0 0.00 0.00 0.00 56 1017.6
20260901150312 76 196 13.0 16.0 0.00 0.00 0.00 58 1017.7
20260901145809 76 215 15.0 16.0 0.00 0.00 0.00 57 1018.0
20260901145306 76 203 17.0 18.0 0.00 0.00 0.00 58 1017.9
20260901144759 75 193 13.0 20.0 0.00 0.00 0.00 58 1018.1
20260901144255 74 187 12.0 20.0 0.00 0.00 0.00 60 1017.9
20260901143750 75 209 16.0 19.0 0.00 0.00 0.00 59 1018.0
20260901143246 73 192 9.0 13.0 0.00 0.00 0.00 60 1018.2
20260901142743 73 206 4.0 14.0 0.00 0.00 0.00 60 1018.1
20260901142241 73 182 11.0 13.0 0.00 0.00 0.00 60 1018.0
20260901141737 73 200 10.0 12.0 0.00 0.00 0.00 61 1017.9
20260901141237 72 215 9.0 12.0 0.00 0.00 0.00 62 1018.1
20260901140736 72 204 9.0 14.0 0.00 0.00 0.00 62 1018.0
20260901140234 72 181 10.0 11.0 0.00 0.00 0.00 62 1018.0
20260901135730 72 146 13.0 15.0 0.00 0.00 0.00 62 1017.9
20260901135230 72 151 15.0 17.0 0.00 0.00 0.00 61 1017.4
20260901134725 71 151 12.0 15.0 0.00 0.00 0.00 62 1017.4
20260901134220 70 133 9.0 15.0 0.00 0.00 0.00 62 1017.6
20260901133720 70 149 12.0 15.0 0.00 0.00 0.00 63 1017.6
20260901133219 70 133 7.0 13.0 0.00 0.00 0.00 63 1017.5
20260901132717 70 128 12.0 14.0 0.00 0.00 0.00 63 1017.7
20260901132212 69 129 10.0 13.0 0.00 0.00 0.00 63 1017.4
20260901131707 68 126 8.0 11.0 0.00 0.00 0.00 64 1017.5
20260901131206 68 125 8.0 11.0 0.00 0.00 0.00 64 1017.3
20260901130702 68 113 8.0 10.0 0.00 0.00 0.00 65 1017.4
20260901130200 68 109 9.0 10.0 0.00 0.00 0.00 65 1017.3
20260901125658 68 112 8.0 10.0 0.00 0.00 0.00 65 1017.4
20260901125154 68 119 9.0 10.0 0.00 0.00 0.00 65 1017.4
20260901124648 68 125 7.0 10.0 0.00 0.00 0.00 64 1017.7
20260901124143 68 134 9.0 10.0 0.00 0.00 0.00 64 1017.2
20260901123638 68 124 9.0 11.0 0.00 0.00 0.00 64 1017.4
20260901123137 68 125 7.0 9.0 0.00 0.00 0.00 65 1017.3
20260901122636 67 118 5.0 7.0 0.00 0.00 0.00 65 1017.3
20260901122131 67 107 4.0 5.0 0.00 0.00 0.00 65 1016.7
20260901121625 67 114 5.0 5.0 0.00 0.00 0.00 65 1017.1
20260901121120 67 105 4.0 6.0 0.00 0.00 0.00 64 1017.0
20260901120615 67 98 4.0 6.0 0.00 0.00 0.00 64 1016.8
20260901120110 67 89 3.0 4.0 0.00 0.00 0.00 64 1017.0
20260901115605 67 91 3.0 5.0 0.00 0.00 0.00 64 1016.7
20260901115102 68 104 5.0 6.0 0.00 0.00 0.00 64 1016.6
20260901114558 68 104 5.0 7.0 0.00 0.00 0.00 63 1017.1
20260901114057 67 103 4.0 7.0 0.00 0.00 0.00 63 1017.0
20260901113555 68 102 5.0 7.0 0.00 0.00 0.00 63 1016.6
20260901113051 68 101 5.0 6.0 0.00 0.00 0.00 62 1016.8
20260901112551 68 115 5.0 7.0 0.00 0.00 0.00 62 1017.0
20260901112046 68 117 6.0 9.0 0.00 0.00 0.00 62 1016.7
20260901111545 68 128 8.0 10.0 0.00 0.00 0.00 61 1017.0
20260901111043 68 124 7.0 10.0 0.00 0.00 0.00 61 1017.1
20260901110539 68 127 9.0 10.0 0.00 0.00 0.00 61 1017.0
20260901110035 68 120 7.0 10.0 0.00 0.00 0.00 61 1016.8
20260901105532 69 114 10.0 13.0 0.00 0.00 0.00 60 1016.8
20260901105030 68 121 7.0 9.0 0.00 0.00 0.00 61 1016.5
20260901104527 68 122 8.0 10.0 0.00 0.00 0.00 60 1016.7
20260901104022 68 112 7.0 8.0 0.00 0.00 0.00 61 1017.0
20260901103516 68 117 7.0 8.0 0.00 0.00 0.00 61 1016.3
20260901103012 68 118 8.0 9.0 0.00 0.00 0.00 60 1016.6
20260901102512 68 120 8.0 9.0 0.00 0.00 0.00 60 1016.6
20260901102006 68 114 8.0 9.0 0.00 0.00 0.00 60 1016.2
20260901101502 68 117 7.0 10.0 0.00 0.00 0.00 60 1016.6
20260901100955 68 122 7.0 8.0 0.00 0.00 0.00 60 1016.7
20260901100450 68 115 6.0 8.0 0.00 0.00 0.00 59 1016.5
20260901095944 68 118 7.0 8.0 0.00 0.00 0.00 60 1016.7
20260901095443 68 121 7.0 9.0 0.00 0.00 0.00 59 1016.4
20260901094935 68 119 8.0 10.0 0.00 0.00 0.00 59 1016.6
20260901094430 68 117 7.0 10.0 0.00 0.00 0.00 59 1016.6
20260901093930 68 112 7.0 8.0 0.00 0.00 0.00 59 1016.7
20260901093430 68 112 6.0 7.0 0.00 0.00 0.00 59 1017.0
20260901092925 68 112 6.0 6.0 0.00 0.00 0.00 59 1016.7
20260901092421 68 112 6.0 6.0 0.00 0.00 0.00 59 1016.4
20260901091917 68 106 5.0 6.0 0.00 0.00 0.00 58 1016.5
20260901091416 68 103 5.0 6.0 0.00 0.00 0.00 58 1016.6
20260901090912 69 113 6.0 7.0 0.00 0.00 0.00 57 1016.6
20260901090411 69 111 6.0 7.0 0.00 0.00 0.00 57 1016.6
20260901085907 69 115 6.0 7.0 0.00 0.00 0.00 57 1016.6
20260901085403 70 116 7.0 8.0 0.00 0.00 0.00 56 1016.7
20260901084859 70 124 5.0 7.0 0.00 0.00 0.00 55 1016.4
20260901084354 70 127 6.0 7.0 0.00 0.00 0.00 55 1016.5
20260901083849 71 129 7.0 10.0 0.00 0.00 0.00 55 1016.3
20260901083344 71 126 7.0 9.0 0.00 0.00 0.00 54 1016.4
20260901082842 71 127 8.0 11.0 0.00 0.00 0.00 54 1016.3
20260901082338 71 130 8.0 10.0 0.00 0.00 0.00 54 1016.5
20260901081833 71 132 7.0 9.0 0.00 0.00 0.00 53 1016.2
20260901081328 72 137 11.0 13.0 0.00 0.00 0.00 53 1016.3
20260901080827 72 132 8.0 11.0 0.00 0.00 0.00 53 1016.3
20260901080322 72 141 8.0 11.0 0.00 0.00 0.00 52 1016.5
20260901075816 72 129 11.0 12.0 0.00 0.00 0.00 51 1016.5
20260901075311 73 136 11.0 12.0 0.00 0.00 0.00 51 1016.3
20260901074807 73 147 9.0 14.0 0.00 0.00 0.00 50 1016.2
20260901074301 73 137 11.0 16.0 0.00 0.00 0.00 50 1016.0
20260901073757 73 145 11.0 14.0 0.00 0.00 0.00 50 1016.0
20260901073252 73 138 10.0 12.0 0.00 0.00 0.00 50 1016.3
20260901072747 73 138 9.0 11.0 0.00 0.00 0.00 50 1016.3
20260901072242 73 145 10.0 11.0 0.00 0.00 0.00 49 1016.5
20260901071736 74 138 11.0 14.0 0.00 0.00 0.00 49 1016.2
20260901071231 74 146 13.0 14.0 0.00 0.00 0.00 48 1016.3
20260901070729 74 147 9.0 17.0 0.00 0.00 0.00 48 1016.3
20260901070225 74 133 9.0 13.0 0.00 0.00 0.00 48 1016.3
20260901065724 74 140 9.0 11.0 0.00 0.00 0.00 48 1016.4
20260901065220 74 140 10.0 12.0 0.00 0.00 0.00 48 1016.5
20260901064716 74 124 9.0 12.0 0.00 0.00 0.00 47 1016.3
20260901064212 75 131 9.0 13.0 0.00 0.00 0.00 47 1016.5
20260901063709 75 135 10.0 11.0 0.00 0.00 0.00 47 1016.2
20260901063205 75 131 9.0 11.0 0.00 0.00 0.00 46 1016.4
20260901062700 75 137 9.0 12.0 0.00 0.00 0.00 46 1016.5
20260901062156 75 138 10.0 12.0 0.00 0.00 0.00 45 1016.3
20260901061652 75 145 7.0 12.0 0.00 0.00 0.00 46 1016.5
20260901061151 75 147 7.0 11.0 0.00 0.00 0.00 45 1016.3
20260901060647 75 132 9.0 11.0 0.00 0.00 0.00 45 1016.5
20260901060142 76 131 11.0 13.0 0.00 0.00 0.00 44 1016.2
20260901055638 76 151 9.0 12.0 0.00 0.00 0.00 44 1016.4
20260901055134 76 135 9.0 14.0 0.00 0.00 0.00 44 1016.4
20260901054631 76 137 11.0 14.0 0.00 0.00 0.00 43 1016.5
20260901054127 77 139 11.0 15.0 0.00 0.00 0.00 43 1016.6
20260901053623 76 136 9.0 12.0 0.00 0.00 0.00 43 1016.5
20260901053118 77 138 9.0 13.0 0.00 0.00 0.00 43 1016.4
20260901052618 77 143 9.0 13.0 0.00 0.00 0.00 43 1016.6
20260901052114 77 146 9.0 15.0 0.00 0.00 0.00 42 1016.5
20260901051613 77 142 9.0 14.0 0.00 0.00 0.00 42 1016.2
20260901051112 77 150 11.0 14.0 0.00 0.00 0.00 42 1016.6
20260901050608 78 141 12.0 15.0 0.00 0.00 0.00 41 1016.4
20260901045557 78 153 11.0 16.0 0.00 0.00 0.00 41 1016.5
20260901045052 78 134 12.0 13.0 0.00 0.00 0.00 41 1016.3
20260901044548 79 147 9.0 13.0 0.00 0.00 0.00 40 1016.5
20260901044044 78 141 14.0 15.0 0.00 0.00 0.00 40 1016.4
20260901043539 78 141 9.0 12.0 0.00 0.00 0.00 40 1016.4
20260901043035 79 149 10.0 13.0 0.00 0.00 0.00 40 1016.4
20260901042534 79 142 10.0 13.0 0.00 0.00 0.00 39 1016.4
20260901042030 79 152 12.0 17.0 0.00 0.00 0.00 39 1016.4
20260901041525 80 154 11.0 16.0 0.00 0.00 0.00 39 1016.2
20260901041019 80 149 11.0 15.0 0.00 0.00 0.00 39 1016.0
20260901040514 80 134 11.0 17.0 0.00 0.00 0.00 38 1016.2
20260901040014 79 133 10.0 14.0 0.00 0.00 0.00 39 1016.3
20260901035511 80 146 9.0 12.0 0.00 0.00 0.00 38 1016.0
20260901035010 80 137 15.0 17.0 0.00 0.00 0.00 38 1016.0
20260901034510 80 142 9.0 16.0 0.00 0.00 0.00 38 1016.2
20260901034005 80 149 11.0 15.0 0.00 0.00 0.00 38 1015.8
20260901033504 80 141 12.0 16.0 0.00 0.00 0.00 38 1016.0
20260901033003 80 142 13.0 13.0 0.00 0.00 0.00 38 1015.9
20260901032457 80 145 9.0 11.0 0.00 0.00 0.00 38 1015.7
20260901031952 81 138 10.0 12.0 0.00 0.00 0.00 38 1015.7
20260901031448 81 140 11.0 14.0 0.00 0.00 0.00 38 1015.8
20260901030948 81 142 10.0 13.0 0.00 0.00 0.00 37 1015.7
20260901030443 81 143 11.0 16.0 0.00 0.00 0.00 37 1015.6
20260901025942 81 147 9.0 13.0 0.00 0.00 0.00 37 1015.5
20260901025438 81 155 10.0 13.0 0.00 0.00 0.00 37 1015.6
20260901024937 81 140 12.0 15.0 0.00 0.00 0.00 37 1015.1
20260901024432 82 139 10.0 13.0 0.00 0.00 0.00 36 1015.0
20260901023930 82 142 9.0 12.0 0.00 0.00 0.00 36 1014.9
20260901023425 82 139 11.0 13.0 0.00 0.00 0.00 35 1015.0
20260901022920 82 130 9.0 16.0 0.00 0.00 0.00 35 1014.9
20260901022416 82 152 9.0 11.0 0.00 0.00 0.00 34 1014.7
20260901021911 82 139 9.0 13.0 0.00 0.00 0.00 34 1014.3
20260901021407 82 141 10.0 14.0 0.00 0.00 0.00 34 1014.7
20260901020902 83 141 8.0 11.0 0.00 0.00 0.00 33 1014.5
20260901020357 83 146 8.0 11.0 0.00 0.00 0.00 33 1014.5
20260901015856 84 149 10.0 13.0 0.00 0.00 0.00 32 1014.2
20260901015353 83 144 7.0 11.0 0.00 0.00 0.00 32 1014.1
20260901014851 84 147 11.0 12.0 0.00 0.00 0.00 32 1014.0
20260901014348 84 143 10.0 13.0 0.00 0.00 0.00 32 1014.1
20260901013843 84 138 8.0 13.0 0.00 0.00 0.00 32 1014.0
20260901013339 84 134 11.0 13.0 0.00 0.00 0.00 33 1014.2
20260901012834 85 145 12.0 16.0 0.00 0.00 0.00 33 1014.1
20260901012329 85 147 10.0 13.0 0.00 0.00 0.00 33 1013.9
20260901011825 85 148 15.0 16.0 0.00 0.00 0.00 32 1013.6
20260901011320 85 152 12.0 18.0 0.00 0.00 0.00 32 1013.9
20260901010813 86 137 9.0 12.0 0.00 0.00 0.00 32 1013.7
20260901010308 86 138 12.0 18.0 0.00 0.00 0.00 31 1014.0
20260901005807 86 146 17.0 18.0 0.00 0.00 0.00 31 1013.9
20260901005306 86 149 12.0 15.0 0.00 0.00 0.00 31 1013.7
20260901004802 87 149 14.0 18.0 0.00 0.00 0.00 30 1013.6
20260901004257 87 127 16.0 19.0 0.00 0.00 0.00 31 1013.6
20260901003756 87 156 17.0 20.0 0.00 0.00 0.00 31 1013.6
20260901003251 87 149 15.0 21.0 0.00 0.00 0.00 30 1013.9
20260901002744 88 143 13.0 24.0 0.00 0.00 0.00 30 1013.7
20260901002240 87 135 13.0 20.0 0.00 0.00 0.00 30 1014.0
20260901001735 88 146 20.0 27.0 0.00 0.00 0.00 30 1013.9
20260901001230 88 130 13.0 18.0 0.00 0.00 0.00 30 1013.8
20260901000720 88 159 14.0 16.0 0.00 0.00 0.00 30 1013.8
20260901000215 88 160 12.0 24.0 0.00 0.00 0.00 29 1014.0
20260831235714 89 141 12.0 18.0 0.00 0.00 0.00 29 1013.7
20260831235210 89 120 16.0 21.0 0.00 0.00 0.00 29 1013.8
20260831234709 89 134 17.0 19.0 0.00 0.00 0.00 29 1014.1
20260831234204 89 143 18.0 25.0 0.00 0.00 0.00 29 1013.9
20260831233700 89 179 22.0 25.0 0.00 0.00 0.00 29 1014.0
20260831233154 89 144 24.0 26.0 0.00 0.00 0.00 29 1014.1
20260831232649 89 167 10.0 22.0 0.00 0.00 0.00 29 1013.8
20260831232146 89 141 15.0 30.0 0.00 0.00 0.00 29 1013.9
20260831231642 90 157 15.0 19.0 0.00 0.00 0.00 27 1013.9
20260831231138 90 180 13.0 22.0 0.00 0.00 0.00 27 1013.9
20260831230632 91 154 26.0 28.0 0.00 0.00 0.00 27 1014.0
20260831230128 90 129 15.0 15.0 0.00 0.00 0.00 26 1013.9
20260831225627 89 134 10.0 25.0 0.00 0.00 0.00 27 1014.1
20260831225122 90 132 13.0 26.0 0.00 0.00 0.00 27 1014.0
20260831224618 90 129 28.0 34.0 0.00 0.00 0.00 28 1014.2
20260831224113 90 145 15.0 21.0 0.00 0.00 0.00 27 1014.1
20260831223603 91 153 18.0 20.0 0.00 0.00 0.00 27 1013.8
20260831223058 90 126 20.0 20.0 0.00 0.00 0.00 28 1013.9
20260831222554 91 152 11.0 19.0 0.00 0.00 0.00 27 1014.1
20260831222055 91 131 23.0 27.0 0.00 0.00 0.00 27 1014.1
20260831221551 90 154 16.0 20.0 0.00 0.00 0.00 27 1014.1
20260831221050 90 152 11.0 15.0 0.00 0.00 0.00 26 1014.0
20260831220550 90 132 11.0 22.0 0.00 0.00 0.00 26 1014.0
20260831220046 90 138 22.0 22.0 0.00 0.00 0.00 27 1014.1
20260831215542 91 133 11.0 14.0 0.00 0.00 0.00 26 1014.0
20260831215037 91 120 13.0 20.0 0.00 0.00 0.00 26 1014.1
20260831214535 90 177 10.0 16.0 0.00 0.00 0.00 26 1013.8
20260831214030 93 141 13.0 23.0 0.00 0.00 0.00 25 1014.0
20260831213527 91 145 16.0 20.0 0.00 0.00 0.00 26 1014.2
20260831213022 91 120 15.0 23.0 0.00 0.00 0.00 26 1014.5
20260831212518 90 128 20.0 31.0 0.00 0.00 0.00 25 1014.6
20260831212013 91 148 20.0 21.0 0.00 0.00 0.00 26 1014.6
20260831211508 91 143 20.0 26.0 0.00 0.00 0.00 26 1014.5
20260831211007 91 168 15.0 19.0 0.00 0.00 0.00 25 1014.6
20260831210502 91 142 15.0 19.0 0.00 0.00 0.00 26 1014.7
20260831205958 93 122 21.0 23.0 0.00 0.00 0.00 25 1014.8
20260831205453 91 129 20.0 28.0 0.00 0.00 0.00 27 1014.8
20260831204949 92 136 15.0 15.0 0.00 0.00 0.00 26 1014.8
20260831204448 90 129 13.0 15.0 0.00 0.00 0.00 27 1014.9
20260831203942 92 122 22.0 24.0 0.00 0.00 0.00 26 1015.0
20260831203436 92 165 19.0 20.0 0.00 0.00 0.00 27 1015.0
20260831202934 91 123 17.0 20.0 0.00 0.00 0.00 28 1015.1
20260831202430 91 103 14.0 17.0 0.00 0.00 0.00 27 1015.5
20260831201924 89 146 5.0 22.0 0.00 0.00 0.00 29 1015.6
20260831201422 90 111 17.0 25.0 0.00 0.00 0.00 29 1015.6
20260831200919 91 158 7.0 14.0 0.00 0.00 0.00 28 1015.6
20260831200413 91 161 12.0 18.0 0.00 0.00 0.00 28 1015.7
20260831195908 91 199 10.0 16.0 0.00 0.00 0.00 28 1015.8
20260831195403 91 168 8.0 18.0 0.00 0.00 0.00 29 1015.8
20260831194859 90 128 10.0 18.0 0.00 0.00 0.00 29 1016.0
20260831194354 90 137 19.0 24.0 0.00 0.00 0.00 29 1015.9
20260831193853 90 129 23.0 26.0 0.00 0.00 0.00 30 1016.2
20260831193348 90 134 16.0 27.0 0.00 0.00 0.00 29 1015.9
20260831192843 89 82 8.0 14.0 0.00 0.00 0.00 31 1016.0